Regional Weather Roundup
Issued by NWS

Home | Current Version | Previous Version | Text Only | Print | Product List | Glossary On
Versions: 1 2 3 4 5 6 7 8 9 10 11 12 13 14 15 16 17 18 19 20 21 22 23 24 25 26 27
000
ASPQ40 PGUM 270212
RWRPQ
WEATHER ROUNDUP FOR THE MARIANAS AND MICRONESIA
NATIONAL WEATHER SERVICE TIYAN GU
1200 PM CHST TUE JUN 27 2017

GUZ001>004-270300-
MARIANA ISLANDS-

CITY           SKY/WX    TMP DP  RH WIND       PRES   REMARKS
GUAM AIRPORT   PTSUNNY   82  79  89 E12       29.92S HX  93
ANDERSEN AFB   PTSUNNY   81  77  89 SE13      29.93F
ROTA AIRPORT   PTSUNNY   86  73  66 E14       29.92S HX  93
TINIAN AP      MOSUNNY   84  73  70 E12       29.90S HX  91
SAIPAN AP      MOSUNNY   90  79  70 SE13      29.92R HX 105

$$

PMZ161-270300-
REPUBLIC OF PALAU-

CITY           SKY/WX    TMP DP  RH WIND       PRES   REMARKS
KOROR AP       PTSUNNY   84  77  79 CALM      29.84S HX  94
KOROR WSO      HVY RAIN  81  75  83 NW7       29.87R

$$

PMZ171>174-270300-
FEDERATED STATES OF MICRONESIA-

CITY           SKY/WX    TMP DP  RH WIND       PRES   REMARKS
YAP AIRPORT    PTSUNNY   88  77  70 VRB6      29.84F HX 100
CHUUK AP       CLOUDY    84  79  84 VRB5      29.86S HX  96
POHNPEI AP     CLOUDY    88  77  70 E6        29.84F HX 100
POHNPEI WSO    CLOUDY    84  73  70 NE5       29.87F HX  91
KOSRAE AP      PTSUNNY   88  77  70 NE14      29.80F HX 100

$$

PMZ181-270300-
REPUBLIC OF THE MARSHALL ISLANDS-

CITY           SKY/WX    TMP DP  RH WIND       PRES   REMARKS
KWAJALEIN AP   MOSUNNY   88  75  66 NE14      29.80F HX  97
MAJURO AP      NOT AVBL
MAJURO WSO     MOSUNNY   86  77  74 E12       29.78F HX  97

$$





USA.gov is the U.S. government's official web portal to all federal, state and local government web resources and services.